Location: The Saddle
(36.8333°N, 80.3417°W)
Time: 03:25:13
(UTC-04:00)

Vanguard 3 - Pass Details

Date: 02 March 2024
Orbit: 510 x 3234 km, 33.3° (Epoch: 24 April)

Event Time Altitude Azimuth Distance (km) Brightness Sun altitude
Rises 21:23:05 0° 265° (W) 6,608 12.5 -37.3°
Reaches altitude 10° 21:27:06 10° 265° (W) 5,812 12.1 -38.1°
Maximum altitude 21:46:32 80° 182° (S) 3,245 9.8 -41.6°
Enters shadow 21:49:09 72° 126° (SE) 3,276 9.7 -42.0°
